Regional Weather Roundup
Issued by NWS

Home | Current Version | Previous Version | Text Only | Print | Product List | Glossary On
Versions: 1 2 3 4 5 6 7 8 9 10 11 12 13 14 15 16 17 18 19 20 21 22 23 24 25 26 27 28 29 30 31 32 33 34 35 36 37 38 39 40 41 42 43 44 45 46 47 48 49 50
000
ASUS43 KLSX 160057
RWRMO

WEATHER SUMMARY FOR MISSOURI
NATIONAL WEATHER SERVICE SPRINGFIELD MO
800 PM CDT TUE AUG 15 2017

NOTE: "FAIR" INDICATES FEW OR NO CLOUDS BELOW 12,000 FEET WITH NO
       SIGNIFICANT WEATHER AND/OR OBSTRUCTIONS TO VISIBILITY.
       CURRENT SKY AND/OR WEATHER CONDITIONS ARE NOT AVAILABLE FOR
       CHILLICOTHE AND FARMINGTON.

MOZ001>031-035>038-043-044-053-054-160200-
...NORTHERN AND WESTERN MISSOURI...

CITY           SKY/WX    TMP DP  RH WIND       PRES   REMARKS
KANSAS CTY INT MOCLDY    81  71  71 SE8       29.84S
LEE`S SUMMIT   PTCLDY    81  73  76 SE7       29.84F
ST JOSEPH      CLEAR     82  71  69 SE9       29.82S
CHILLICOTHE      N/A     81  71  71 CALM      29.85S

$$
MOZ066>068-077>081-088>096-101>105-160200-
...SOUTHWEST MISSOURI...

CITY           SKY/WX    TMP DP  RH WIND       PRES   REMARKS
SPRINGFIELD    CLOUDY    80  72  76 SE7       29.87R
JOPLIN         CLOUDY    83  75  77 E8        29.83S HX  90
BRANSON        PTCLDY    79  75  89 SE5       29.89R

$$
MOZ032>034-039>042-045>050-055>058-069>072-160200-
...CENTRAL MISSOURI...

CITY           SKY/WX    TMP DP  RH WIND       PRES   REMARKS
COLUMBIA       NOT AVBL
JEFFERSON CITY CLEAR     82  75  79 CALM      29.85R
ROLLA          PTCLDY    79  73  82 E5        29.90R
SEDALIA        CLEAR     81  75  82 E5        29.86F
WARRENSBURG    CLEAR     79  70  73 E5        29.84S

$$
MOZ051-052-059>065-160200-
...EAST CENTRAL MISSOURI...

CITY           SKY/WX    TMP DP  RH WIND       PRES   REMARKS
ST LOUIS INTL  PTCLDY    84  69  60 E8        29.89R

$$
MOZ072>076-082>087-097>100-106>115-160200-
...SOUTH CENTRAL AND SOUTHEAST MISSOURI...

CITY           SKY/WX    TMP DP  RH WIND       PRES   REMARKS
CAPE GIRARDEAU PTCLDY    76  73  91 SW5       29.90R
FARMINGTON     MOCLDY    79  73  83 S8        29.92R
POPLAR BLUFF   CLEAR     77  75  93 CALM      29.90R
WEST PLAINS    PTCLDY    79  72  79 SE5       29.92R

$$



USA.gov is the U.S. government's official web portal to all federal, state and local government web resources and services.